Powrót do katalogu

RISAT-2BR2

AktywnyMilitariaVLEO
NORAD 46905·PAYLOAD·🇮🇳 India

Wystrzelony Nov 7, 2020 z Satish Dhawan Space Centre

Loading…

Następne Przeloty (najbliższe 24 godziny)

TLE

ŚwieżeSource: Space-Track

Epoka: Sep 14, 2026, 19:18 UTC

1 46905U 20081A   26257.80421081  .00000196  00000-0  21246-4 0  9996
2 46905  36.8983  52.3700 0013905 163.7105 196.4085 15.00892229320940

Śledź RISAT-2BR2 w czasie rzeczywistym z AllMySat

Download on the App Store